Time,TemperatureF,DewpointF,PressureIn,WindDirection,WindDirectionDegrees,WindSpeedMPH,WindSpeedGustMPH,Humidity,HourlyPrecipIn,Conditions,Clouds,dailyrainin,SolarRadiationWatts/m^2,SoftwareType,DateUTC
2013-04-07 00:05:00,54.0,36.8,30.19,ESE,107,1.0,4.0,52,0.00,BKN,SCT,0.00,0.0,WeatherDisplay:10.37,2013-04-07 04:05:00,
2013-04-07 00:10:00,53.8,37.1,30.19,ESE,107,0.0,1.0,53,0.00,BKN,SCT,0.00,0.0,WeatherDisplay:10.37,2013-04-07 04:10:00,
2013-04-07 00:15:00,53.4,36.7,30.19,ESE,107,1.0,3.0,53,0.00,BKN,SCT,0.00,0.0,WeatherDisplay:10.37,2013-04-07 04:15:00,
2013-04-07 00:20:00,53.2,36.5,30.19,ESE,107,1.0,3.0,53,0.00,BKN,SCT,0.00,0.0,WeatherDisplay:10.37,2013-04-07 04:20:00,
2013-04-07 00:25:00,53.2,36.5,30.19,ESE,107,1.0,3.0,53,0.00,BKN,SCT,0.00,0.0,WeatherDisplay:10.37,2013-04-07 04:25:00,
2013-04-07 00:30:00,53.2,36.5,30.19,ESE,107,1.0,5.0,53,0.00,BKN,SCT,0.00,0.0,WeatherDisplay:10.37,2013-04-07 04:30:00,
2013-04-07 00:40:00,53.4,36.7,30.19,ESE,107,1.0,4.0,53,0.00,BKN,SCT,0.00,0.0,WeatherDisplay:10.37,2013-04-07 04:40:00,
2013-04-07 00:45:00,53.5,36.8,30.19,ESE,107,2.0,5.0,53,0.00,BKN,SCT,0.00,0.0,WeatherDisplay:10.37,2013-04-07 04:45:00,
2013-04-07 00:50:00,53.6,36.9,30.19,ESE,107,1.0,7.0,53,0.00,BKN,SCT,0.00,0.0,WeatherDisplay:10.37,2013-04-07 04:50:00,
2013-04-07 00:55:00,53.7,37.0,30.19,ESE,108,1.0,5.0,53,0.00,BKN,SCT,0.00,0.0,WeatherDisplay:10.37,2013-04-07 04:55:00,
2013-04-07 01:00:00,53.7,36.5,30.19,ESE,113,3.0,9.0,52,0.00,BKN,SCT,0.00,0.0,WeatherDisplay:10.37,2013-04-07 05:00:00,
2013-04-07 01:05:00,53.8,37.1,30.18,ESE,120,1.0,7.0,53,0.00,BKN,SCT,0.00,0.0,WeatherDisplay:10.37,2013-04-07 05:05:00,
2013-04-07 01:10:00,53.8,37.1,30.18,SE,128,0.0,5.0,53,0.00,BKN,SCT,0.00,0.0,WeatherDisplay:10.37,2013-04-07 05:10:00,
2013-04-07 01:20:00,53.7,37.0,30.19,SE,130,1.0,4.0,53,0.00,BKN,SCT,0.00,0.0,WeatherDisplay:10.37,2013-04-07 05:20:00,
2013-04-07 01:30:00,53.5,37.3,30.19,SE,130,2.0,4.0,54,0.00,BKN,SCT,0.00,0.0,WeatherDisplay:10.37,2013-04-07 05:30:00,
2013-04-07 01:35:00,53.4,37.6,30.19,SE,130,2.0,5.0,55,0.00,BKN,SCT,0.00,0.0,WeatherDisplay:10.37,2013-04-07 05:35:00,
2013-04-07 01:40:00,53.3,38.0,30.19,SE,131,1.0,5.0,56,0.00,BKN,SCT,0.00,0.0,WeatherDisplay:10.37,2013-04-07 05:40:00,
2013-04-07 01:45:00,53.3,38.0,30.19,SE,132,1.0,4.0,56,0.00,BKN,SCT,0.00,0.0,WeatherDisplay:10.37,2013-04-07 05:45:00,
2013-04-07 01:50:00,53.2,37.9,30.19,SE,132,2.0,5.0,56,0.00,BKN,SCT,0.00,0.0,WeatherDisplay:10.37,2013-04-07 05:50:00,
2013-04-07 02:00:00,53.1,38.2,30.19,SE,132,0.0,2.0,57,0.00,BKN,SCT,0.00,0.0,WeatherDisplay:10.37,2013-04-07 06:00:00,
2013-04-07 02:05:00,53.0,38.2,30.19,SE,132,0.0,1.0,57,0.00,BKN,SCT,0.00,0.0,WeatherDisplay:10.37,2013-04-07 06:05:00,
2013-04-07 02:10:00,52.9,38.5,30.19,SE,132,0.0,2.0,58,0.00,BKN,SCT,0.00,0.0,WeatherDisplay:10.37,2013-04-07 06:10:00,
2013-04-07 02:20:00,52.7,38.3,30.19,SE,132,0.0,2.0,58,0.00,BKN,SCT,0.00,0.0,WeatherDisplay:10.37,2013-04-07 06:20:00,
2013-04-07 02:25:00,52.6,38.7,30.19,SE,132,1.0,4.0,59,0.00,BKN,SCT,0.00,0.0,WeatherDisplay:10.37,2013-04-07 06:25:00,
2013-04-07 02:30:00,52.5,38.6,30.19,SE,132,0.0,1.0,59,0.00,BKN,SCT,0.00,0.0,WeatherDisplay:10.37,2013-04-07 06:30:00,
2013-04-07 02:35:00,52.4,38.9,30.19,SE,132,0.0,3.0,60,0.00,BKN,SCT,0.00,0.0,WeatherDisplay:10.37,2013-04-07 06:35:00,
2013-04-07 02:40:00,52.2,39.1,30.19,SE,132,1.0,5.0,61,0.00,BKN,SCT,0.00,0.0,WeatherDisplay:10.37,2013-04-07 06:40:00,
2013-04-07 02:50:00,51.9,38.9,30.19,SE,133,1.0,3.0,61,0.00,BKN,SCT,0.00,0.0,WeatherDisplay:10.37,2013-04-07 06:50:00,
2013-04-07 02:55:00,51.8,39.2,30.19,SE,133,1.0,4.0,62,0.00,BKN,SCT,0.00,0.0,WeatherDisplay:10.37,2013-04-07 06:55:00,
2013-04-07 03:05:00,51.6,39.0,30.18,SE,133,0.0,3.0,62,0.00,BKN,SCT,0.00,0.0,WeatherDisplay:10.37,2013-04-07 07:05:00,
2013-04-07 03:10:00,51.5,39.3,30.18,SE,133,1.0,5.0,63,0.00,BKN,SCT,0.00,0.0,WeatherDisplay:10.37,2013-04-07 07:10:00,
2013-04-07 03:15:00,51.4,39.2,30.19,SE,133,2.0,4.0,63,0.00,BKN,SCT,0.00,0.0,WeatherDisplay:10.37,2013-04-07 07:15:00,
2013-04-07 03:20:00,51.2,39.4,30.19,SE,133,1.0,4.0,64,0.00,BKN,SCT,0.00,0.0,WeatherDisplay:10.37,2013-04-07 07:20:00,
2013-04-07 03:25:00,51.1,39.3,30.18,SE,133,1.0,4.0,64,0.00,BKN,SCT,0.00,0.0,WeatherDisplay:10.37,2013-04-07 07:25:00,
2013-04-07 03:30:00,51.0,39.2,30.18,SE,133,0.0,3.0,64,0.00,BKN,SCT,0.00,0.0,WeatherDisplay:10.37,2013-04-07 07:30:00,
2013-04-07 03:35:00,50.8,39.1,30.19,SE,133,0.0,1.0,64,0.00,BKN,SCT,0.00,0.0,WeatherDisplay:10.37,2013-04-07 07:35:00,
2013-04-07 03:45:00,50.5,38.8,30.19,SE,133,0.0,0.0,64,0.00,BKN,SCT,0.00,0.0,WeatherDisplay:10.37,2013-04-07 07:45:00,
2013-04-07 03:50:00,50.4,38.7,30.18,SE,133,0.0,1.0,64,0.00,BKN,SCT,0.00,0.0,WeatherDisplay:10.37,2013-04-07 07:50:00,
2013-04-07 03:55:00,50.2,38.9,30.19,SE,133,0.0,1.0,65,0.00,BKN,SCT,0.00,0.0,WeatherDisplay:10.37,2013-04-07 07:55:00,
2013-04-07 04:00:00,50.0,38.3,30.19,SE,133,0.0,0.0,64,0.00,BKN,SCT,0.00,0.0,WeatherDisplay:10.37,2013-04-07 08:00:00,
2013-04-07 04:10:00,49.2,38.3,30.19,SE,133,0.0,2.0,66,0.00,BKN,SCT,0.00,0.0,WeatherDisplay:10.37,2013-04-07 08:10:00,
2013-04-07 04:15:00,48.2,38.1,30.19,SE,133,0.0,1.0,68,0.00,BKN,SCT,0.00,0.0,WeatherDisplay:10.37,2013-04-07 08:15:00,
2013-04-07 04:20:00,47.3,38.0,30.19,SE,133,0.0,1.0,70,0.00,BKN,SCT,0.00,0.0,WeatherDisplay:10.37,2013-04-07 08:20:00,
2013-04-07 04:25:00,46.9,37.6,30.19,SE,133,0.0,0.0,70,0.00,BKN,SCT,0.00,0.0,WeatherDisplay:10.37,2013-04-07 08:25:00,
2013-04-07 04:30:00,46.5,37.6,30.19,SE,133,0.0,1.0,71,0.00,BKN,SCT,0.00,0.0,WeatherDisplay:10.37,2013-04-07 08:30:00,
2013-04-07 04:35:00,46.1,37.6,30.19,SE,133,0.0,1.0,72,0.00,BKN,SCT,0.00,0.0,WeatherDisplay:10.37,2013-04-07 08:35:00,
2013-04-07 04:40:00,45.7,37.2,30.19,SE,133,0.0,2.0,72,0.00,BKN,SCT,0.00,0.0,WeatherDisplay:10.37,2013-04-07 08:40:00,
2013-04-07 04:45:00,45.3,37.2,30.20,SE,133,0.0,1.0,73,0.00,BKN,SCT,0.00,0.0,WeatherDisplay:10.37,2013-04-07 08:45:00,
2013-04-07 04:50:00,45.2,37.0,30.20,SE,133,0.0,0.0,73,0.00,BKN,SCT,0.00,0.0,WeatherDisplay:10.37,2013-04-07 08:50:00,
2013-04-07 04:55:00,45.0,36.9,30.20,SE,133,0.0,0.0,73,0.00,BKN,SCT,0.00,0.0,WeatherDisplay:10.37,2013-04-07 08:55:00,
2013-04-07 05:00:00,45.0,36.5,30.20,SE,133,0.0,0.0,72,0.00,BKN,SCT,0.00,0.0,WeatherDisplay:10.37,2013-04-07 09:00:00,
2013-04-07 05:05:00,44.7,36.5,30.20,SE,133,0.0,0.0,73,0.00,BKN,SCT,0.00,0.0,WeatherDisplay:10.37,2013-04-07 09:05:00,
2013-04-07 05:15:00,44.1,36.4,30.20,SE,133,0.0,0.0,74,0.00,BKN,SCT,0.00,0.0,WeatherDisplay:10.37,2013-04-07 09:15:00,
2013-04-07 05:20:00,43.9,36.2,30.20,SE,133,0.0,0.0,74,0.00,BKN,SCT,0.00,0.0,WeatherDisplay:10.37,2013-04-07 09:20:00,
2013-04-07 05:30:00,43.5,35.7,30.20,SE,133,0.0,0.0,74,0.00,BKN,SCT,0.00,0.0,WeatherDisplay:10.37,2013-04-07 09:30:00,
2013-04-07 05:35:00,43.2,35.5,30.20,SE,133,0.0,0.0,74,0.00,BKN,SCT,0.00,0.0,WeatherDisplay:10.37,2013-04-07 09:35:00,
2013-04-07 05:45:00,42.7,35.3,30.20,SE,133,0.0,0.0,75,0.00,BKN,SCT,0.00,0.0,WeatherDisplay:10.37,2013-04-07 09:45:00,
2013-04-07 05:55:00,42.1,35.1,30.20,SE,133,0.0,0.0,76,0.00,BKN,SCT,0.00,0.0,WeatherDisplay:10.37,2013-04-07 09:55:00,
2013-04-07 06:00:00,41.9,35.2,30.21,SE,133,0.0,0.0,77,0.00,BKN,SCT,0.00,0.0,WeatherDisplay:10.37,2013-04-07 10:00:00,
2013-04-07 06:05:00,41.6,34.9,30.21,SE,133,0.0,0.0,77,0.00,BKN,SCT,0.00,0.0,WeatherDisplay:10.37,2013-04-07 10:05:00,
2013-04-07 06:10:00,41.3,34.6,30.21,SE,133,0.0,1.0,77,0.00,BKN,SCT,0.00,0.0,WeatherDisplay:10.37,2013-04-07 10:10:00,
2013-04-07 06:20:00,40.8,34.5,30.21,SE,133,0.0,0.0,78,0.00,BKN,SCT,0.00,0.0,WeatherDisplay:10.37,2013-04-07 10:20:00,
2013-04-07 06:30:00,40.5,34.5,30.21,SE,133,0.0,0.0,79,0.00,BKN,SCT,0.00,0.0,WeatherDisplay:10.37,2013-04-07 10:30:00,
2013-04-07 06:35:00,40.4,34.4,30.21,SE,133,0.0,0.0,79,0.00,BKN,SCT,0.00,0.0,WeatherDisplay:10.37,2013-04-07 10:35:00,
2013-04-07 06:40:00,40.2,34.2,30.21,SE,133,0.0,0.0,79,0.00,BKN,SCT,0.00,0.0,WeatherDisplay:10.37,2013-04-07 10:40:00,
2013-04-07 06:45:00,40.0,34.3,30.21,SE,133,0.0,1.0,80,0.00,BKN,SCT,0.00,0.0,WeatherDisplay:10.37,2013-04-07 10:45:00,
2013-04-07 06:50:00,39.8,34.1,30.21,SE,133,0.0,1.0,80,0.00,BKN,SCT,0.00,0.0,WeatherDisplay:10.37,2013-04-07 10:50:00,
2013-04-07 06:55:00,39.7,34.3,30.22,SE,133,0.0,1.0,81,0.00,BKN,SCT,0.00,0.0,WeatherDisplay:10.37,2013-04-07 10:55:00,
2013-04-07 07:05:00,39.7,34.3,30.22,SE,133,0.0,1.0,81,0.00,BKN,SCT,0.00,7.0,WeatherDisplay:10.37,2013-04-07 11:05:00,
2013-04-07 07:10:00,39.7,34.0,30.22,SE,133,0.0,0.0,80,0.00,BKN,SCT,0.00,12.0,WeatherDisplay:10.37,2013-04-07 11:10:00,
2013-04-07 07:15:00,39.7,34.0,30.22,SE,133,0.0,0.0,80,0.00,BKN,SCT,0.00,18.0,WeatherDisplay:10.37,2013-04-07 11:15:00,
2013-04-07 07:20:00,39.8,34.1,30.22,SE,133,0.0,0.0,80,0.00,BKN,SCT,0.00,23.0,WeatherDisplay:10.37,2013-04-07 11:20:00,
2013-04-07 07:30:00,40.2,34.8,30.22,SE,133,0.0,1.0,81,0.00,SCT,SCT,0.00,37.0,WeatherDisplay:10.37,2013-04-07 11:30:00,
2013-04-07 07:35:00,40.7,35.0,30.22,SE,132,0.0,1.0,80,0.00,SCT,SCT,0.00,39.0,WeatherDisplay:10.37,2013-04-07 11:35:00,
2013-04-07 07:40:00,41.3,35.6,30.22,SE,132,0.0,1.0,80,0.00,SCT,SCT,0.00,40.0,WeatherDisplay:10.37,2013-04-07 11:40:00,
2013-04-07 07:45:00,42.0,35.6,30.22,SE,132,0.0,1.0,78,0.00,SCT,SCT,0.00,42.0,WeatherDisplay:10.37,2013-04-07 11:45:00,
2013-04-07 07:50:00,42.6,35.9,30.22,SE,132,0.0,1.0,77,0.00,BKN,SCT,0.00,47.0,WeatherDisplay:10.37,2013-04-07 11:50:00,
2013-04-07 07:55:00,43.2,36.2,30.23,SE,134,1.0,2.0,76,0.00,BKN,SCT,0.00,53.0,WeatherDisplay:10.37,2013-04-07 11:55:00,
2013-04-07 08:05:00,44.3,36.6,30.23,SE,137,0.0,3.0,74,0.00,BKN,SCT,0.00,60.0,WeatherDisplay:10.37,2013-04-07 12:05:00,
2013-04-07 08:10:00,44.9,37.1,30.23,SE,137,1.0,3.0,74,0.00,BKN,SCT,0.00,70.0,WeatherDisplay:10.37,2013-04-07 12:10:00,
2013-04-07 08:15:00,45.5,37.7,30.23,SE,137,1.0,3.0,74,0.00,BKN,SCT,0.00,81.0,WeatherDisplay:10.37,2013-04-07 12:15:00,
2013-04-07 08:20:00,46.0,37.9,30.23,SE,137,1.0,3.0,73,0.00,SCT,SCT,0.00,91.0,WeatherDisplay:10.37,2013-04-07 12:20:00,
2013-04-07 08:30:00,47.3,39.0,30.22,SE,137,2.0,5.0,73,0.00,SCT,SCT,0.00,98.0,WeatherDisplay:10.37,2013-04-07 12:30:00,
2013-04-07 08:40:00,48.6,40.0,30.23,SE,137,2.0,6.0,72,0.00,BKN,SCT,0.00,104.0,WeatherDisplay:10.37,2013-04-07 12:40:00,
2013-04-07 08:45:00,49.1,40.1,30.23,SE,137,2.0,5.0,71,0.00,BKN,SCT,0.00,116.0,WeatherDisplay:10.37,2013-04-07 12:45:00,
2013-04-07 08:50:00,49.6,40.9,30.23,SE,138,2.0,6.0,72,0.00,BKN,SCT,0.00,118.0,WeatherDisplay:10.37,2013-04-07 12:50:00,
2013-04-07 08:55:00,50.1,41.4,30.23,SE,141,2.0,8.0,72,0.00,BKN,SCT,0.00,144.0,WeatherDisplay:10.37,2013-04-07 12:55:00,
2013-04-07 09:00:00,50.6,42.3,30.23,SE,144,0.0,4.0,73,0.00,SCT,SCT,0.00,211.0,WeatherDisplay:10.37,2013-04-07 13:00:00,
2013-04-07 09:10:00,51.8,42.6,30.23,SE,143,1.0,5.0,71,0.00,FEW,SCT,0.00,439.0,WeatherDisplay:10.37,2013-04-07 13:10:00,
2013-04-07 09:15:00,52.3,43.5,30.23,SE,142,1.0,4.0,72,0.00,CLR,SCT,0.00,425.0,WeatherDisplay:10.37,2013-04-07 13:15:00,
2013-04-07 09:20:00,52.8,44.0,30.23,SE,143,1.0,5.0,72,0.00,CLR,SCT,0.00,209.0,WeatherDisplay:10.37,2013-04-07 13:20:00,
2013-04-07 09:25:00,53.2,44.0,30.23,SSE,149,2.0,6.0,71,0.00,FEW,SCT,0.00,243.0,WeatherDisplay:10.37,2013-04-07 13:25:00,
2013-04-07 09:30:00,53.4,43.9,30.23,SSE,153,2.0,5.0,70,0.00,SCT,SCT,0.00,461.0,WeatherDisplay:10.37,2013-04-07 13:30:00,
2013-04-07 09:35:00,53.7,44.1,30.23,SSE,164,2.0,7.0,70,0.00,FEW,SCT,0.00,401.0,WeatherDisplay:10.37,2013-04-07 13:35:00,
2013-04-07 09:40:00,53.9,43.5,30.23,South,188,2.0,6.0,68,0.00,FEW,SCT,0.00,352.0,WeatherDisplay:10.37,2013-04-07 13:40:00,
2013-04-07 09:45:00,54.0,44.1,30.23,South,179,3.0,6.0,69,0.00,FEW,SCT,0.00,515.0,WeatherDisplay:10.37,2013-04-07 13:45:00,
2013-04-07 09:50:00,54.2,44.3,30.23,SSE,166,2.0,5.0,69,0.00,CLR,SCT,0.00,519.0,WeatherDisplay:10.37,2013-04-07 13:50:00,
2013-04-07 10:00:00,55.0,44.6,30.23,SSE,162,0.0,7.0,68,0.00,CLR,SCT,0.00,547.0,WeatherDisplay:10.37,2013-04-07 14:00:00,
2013-04-07 10:05:00,55.4,44.6,30.23,SSE,163,5.0,9.0,67,0.00,CLR,SCT,0.00,494.0,WeatherDisplay:10.37,2013-04-07 14:05:00,
2013-04-07 10:15:00,56.2,45.8,30.23,SSE,153,3.0,8.0,68,0.00,CLR,SCT,0.00,599.0,WeatherDisplay:10.37,2013-04-07 14:15:00,
2013-04-07 10:20:00,56.7,45.5,30.23,SSE,156,2.0,6.0,66,0.00,CLR,SCT,0.00,657.0,WeatherDisplay:10.37,2013-04-07 14:20:00,
2013-04-07 10:25:00,57.2,45.9,30.23,SSE,156,5.0,9.0,66,0.00,CLR,SCT,0.00,605.0,WeatherDisplay:10.37,2013-04-07 14:25:00,
2013-04-07 10:30:00,57.5,45.8,30.23,SSE,156,7.0,12.0,65,0.00,CLR,SCT,0.00,503.0,WeatherDisplay:10.37,2013-04-07 14:30:00,
2013-04-07 10:35:00,57.7,46.0,30.23,SSE,154,6.0,10.0,65,0.00,FEW,SCT,0.00,566.0,WeatherDisplay:10.37,2013-04-07 14:35:00,
2013-04-07 10:45:00,58.2,46.5,30.23,SSE,151,3.0,8.0,65,0.00,FEW,SCT,0.00,633.0,WeatherDisplay:10.37,2013-04-07 14:45:00,
2013-04-07 10:50:00,58.6,47.2,30.23,SSE,155,3.0,9.0,66,0.00,CLR,SCT,0.00,622.0,WeatherDisplay:10.37,2013-04-07 14:50:00,
2013-04-07 10:55:00,58.9,46.8,30.23,SSW,196,6.0,13.0,64,0.00,CLR,SCT,0.00,677.0,WeatherDisplay:10.37,2013-04-07 14:55:00,
2013-04-07 11:05:00,59.3,47.5,30.23,SSW,213,5.0,12.0,65,0.00,FEW,SCT,0.00,531.0,WeatherDisplay:10.37,2013-04-07 15:05:00,
2013-04-07 11:10:00,59.4,46.8,30.23,SW,214,1.0,9.0,63,0.00,FEW,SCT,0.00,728.0,WeatherDisplay:10.37,2013-04-07 15:10:00,
2013-04-07 11:15:00,59.8,47.2,30.23,SW,215,3.0,9.0,63,0.00,FEW,SCT,0.00,729.0,WeatherDisplay:10.37,2013-04-07 15:15:00,
2013-04-07 11:25:00,60.3,47.7,30.23,SSE,163,5.0,12.0,63,0.00,CLR,SCT,0.00,717.0,WeatherDisplay:10.37,2013-04-07 15:25:00,
2013-04-07 11:35:00,60.9,47.8,30.23,South,177,3.0,13.0,62,0.00,CLR,SCT,0.00,793.0,WeatherDisplay:10.37,2013-04-07 15:35:00,
2013-04-07 11:40:00,61.3,48.2,30.22,SW,214,6.0,10.0,62,0.00,CLR,SCT,0.00,847.0,WeatherDisplay:10.37,2013-04-07 15:40:00,
2013-04-07 11:50:00,62.0,48.4,30.22,SW,216,3.0,10.0,61,0.00,CLR,SCT,0.00,840.0,WeatherDisplay:10.37,2013-04-07 15:50:00,
2013-04-07 11:55:00,62.4,49.2,30.22,South,176,3.0,10.0,62,0.00,CLR,SCT,0.00,821.0,WeatherDisplay:10.37,2013-04-07 15:55:00,
2013-04-07 12:00:00,62.8,49.1,30.22,SSE,151,1.0,7.0,61,0.00,CLR,SCT,0.00,886.0,WeatherDisplay:10.37,2013-04-07 16:00:00,
2013-04-07 12:05:00,63.2,48.2,30.21,South,186,5.0,12.0,58,0.00,CLR,SCT,0.00,833.0,WeatherDisplay:10.37,2013-04-07 16:05:00,
2013-04-07 12:10:00,63.5,48.0,30.21,SSW,212,2.0,12.0,57,0.00,CLR,SCT,0.00,856.0,WeatherDisplay:10.37,2013-04-07 16:10:00,
2013-04-07 12:15:00,63.8,48.3,30.21,SW,232,2.0,6.0,57,0.00,CLR,SCT,0.00,860.0,WeatherDisplay:10.37,2013-04-07 16:15:00,
2013-04-07 12:30:00,64.4,47.9,30.20,SSW,194,5.0,10.0,55,0.00,CLR,SCT,0.00,937.0,WeatherDisplay:10.37,2013-04-07 16:30:00,
2013-04-07 12:35:00,64.5,48.9,30.20,SW,218,3.0,10.0,57,0.00,CLR,SCT,0.00,937.0,WeatherDisplay:10.37,2013-04-07 16:35:00,
2013-04-07 12:40:00,64.8,48.7,30.20,SW,234,1.0,9.0,56,0.00,CLR,SCT,0.00,914.0,WeatherDisplay:10.37,2013-04-07 16:40:00,
2013-04-07 12:50:00,65.5,49.4,30.19,SSW,195,3.0,7.0,56,0.00,CLR,SCT,0.00,944.0,WeatherDisplay:10.37,2013-04-07 16:50:00,
2013-04-07 12:55:00,65.6,49.5,30.19,SSE,160,7.0,13.0,56,0.00,CLR,SCT,0.00,939.0,WeatherDisplay:10.37,2013-04-07 16:55:00,
2013-04-07 13:00:00,65.8,49.7,30.19,SSE,159,2.0,9.0,56,0.00,CLR,SCT,0.00,1027.0,WeatherDisplay:10.37,2013-04-07 17:00:00,
2013-04-07 13:05:00,66.1,49.0,30.18,South,177,3.0,9.0,54,0.00,CLR,SCT,0.00,645.0,WeatherDisplay:10.37,2013-04-07 17:05:00,
2013-04-07 13:10:00,66.1,48.0,30.18,SSW,196,3.0,8.0,52,0.00,SCT,SCT,0.00,234.0,WeatherDisplay:10.37,2013-04-07 17:10:00,
2013-04-07 13:20:00,66.5,50.3,30.17,SW,218,2.0,8.0,56,0.00,FEW,SCT,0.00,970.0,WeatherDisplay:10.37,2013-04-07 17:20:00,
2013-04-07 13:25:00,66.8,49.6,30.17,SSW,208,3.0,9.0,54,0.00,CLR,SCT,0.00,1004.0,WeatherDisplay:10.37,2013-04-07 17:25:00,
2013-04-07 13:30:00,67.2,49.5,30.17,South,174,3.0,7.0,53,0.00,CLR,SCT,0.00,1049.0,WeatherDisplay:10.37,2013-04-07 17:30:00,
2013-04-07 13:40:00,67.2,49.5,30.16,SSW,201,6.0,9.0,53,0.00,SCT,SCT,0.00,512.0,WeatherDisplay:10.37,2013-04-07 17:40:00,
2013-04-07 13:45:00,67.0,48.7,30.16,SSW,210,5.0,9.0,52,0.00,SCT,SCT,0.00,492.0,WeatherDisplay:10.37,2013-04-07 17:45:00,
2013-04-07 13:55:00,67.0,50.8,30.16,South,187,3.0,8.0,56,0.00,SCT,SCT,0.00,991.0,WeatherDisplay:10.37,2013-04-07 17:55:00,
2013-04-07 14:05:00,67.8,50.5,30.15,South,177,5.0,10.0,54,0.00,CLR,SCT,0.00,1023.0,WeatherDisplay:10.37,2013-04-07 18:05:00,
2013-04-07 14:10:00,68.1,49.3,30.15,South,184,5.0,15.0,51,0.00,CLR,SCT,0.00,1099.0,WeatherDisplay:10.37,2013-04-07 18:10:00,
2013-04-07 14:20:00,68.0,48.7,30.14,South,177,3.0,8.0,50,0.00,CLR,SCT,0.00,902.0,WeatherDisplay:10.37,2013-04-07 18:20:00,
2013-04-07 14:25:00,68.1,49.8,30.14,South,180,6.0,12.0,52,0.00,FEW,SCT,0.00,932.0,WeatherDisplay:10.37,2013-04-07 18:25:00,
2013-04-07 14:30:00,68.4,49.0,30.14,SSW,197,3.0,8.0,50,0.00,CLR,SCT,0.00,977.0,WeatherDisplay:10.37,2013-04-07 18:30:00,
2013-04-07 14:35:00,68.6,49.8,30.13,SSW,207,3.0,10.0,51,0.00,CLR,SCT,0.00,547.0,WeatherDisplay:10.37,2013-04-07 18:35:00,
2013-04-07 14:40:00,68.6,48.7,30.13,South,190,5.0,12.0,49,0.00,FEW,SCT,0.00,643.0,WeatherDisplay:10.37,2013-04-07 18:40:00,
2013-04-07 14:50:00,68.6,49.7,30.12,SSE,166,2.0,12.0,51,0.00,FEW,SCT,0.00,912.0,WeatherDisplay:10.37,2013-04-07 18:50:00,
2013-04-07 14:55:00,68.7,49.3,30.12,South,179,3.0,7.0,50,0.00,FEW,SCT,0.00,452.0,WeatherDisplay:10.37,2013-04-07 18:55:00,
2013-04-07 15:00:00,68.5,48.6,30.12,South,169,5.0,9.0,49,0.00,SCT,SCT,0.00,290.0,WeatherDisplay:10.37,2013-04-07 19:00:00,
2013-04-07 15:10:00,68.4,49.0,30.12,South,184,3.0,8.0,50,0.00,SCT,SCT,0.00,722.0,WeatherDisplay:10.37,2013-04-07 19:10:00,
2013-04-07 15:15:00,68.6,49.2,30.11,South,181,6.0,9.0,50,0.00,FEW,SCT,0.00,810.0,WeatherDisplay:10.37,2013-04-07 19:15:00,
2013-04-07 15:30:00,68.7,47.1,30.11,SSW,194,6.0,12.0,46,0.00,SCT,SCT,0.00,381.0,WeatherDisplay:10.37,2013-04-07 19:30:00,
2013-04-07 15:35:00,68.7,47.1,30.11,SW,216,5.0,10.0,46,0.00,SCT,SCT,0.00,399.0,WeatherDisplay:10.37,2013-04-07 19:35:00,
2013-04-07 15:40:00,68.8,47.2,30.10,SW,222,6.0,12.0,46,0.00,SCT,SCT,0.00,455.0,WeatherDisplay:10.37,2013-04-07 19:40:00,
2013-04-07 15:50:00,69.7,49.1,30.10,SSW,200,3.0,15.0,48,0.00,FEW,SCT,0.00,759.0,WeatherDisplay:10.37,2013-04-07 19:50:00,
2013-04-07 16:00:00,70.3,48.0,30.09,SSW,194,6.0,12.0,45,0.00,CLR,SCT,0.00,766.0,WeatherDisplay:10.37,2013-04-07 20:00:00,
2013-04-07 16:05:00,70.7,48.9,30.09,SSW,207,3.0,12.0,46,0.00,CLR,SCT,0.00,768.0,WeatherDisplay:10.37,2013-04-07 20:05:00,
2013-04-07 16:10:00,71.1,49.2,30.09,SW,219,6.0,17.0,46,0.00,CLR,SCT,0.00,664.0,WeatherDisplay:10.37,2013-04-07 20:10:00,
2013-04-07 16:20:00,71.5,47.8,30.09,South,191,5.0,14.0,43,0.00,CLR,SCT,0.00,666.0,WeatherDisplay:10.37,2013-04-07 20:20:00,
2013-04-07 16:35:00,71.2,47.6,30.09,SSW,192,6.0,12.0,43,0.00,CLR,SCT,0.00,663.0,WeatherDisplay:10.37,2013-04-07 20:35:00,
2013-04-07 16:40:00,71.1,46.8,30.09,SSW,199,7.0,14.0,42,0.00,CLR,SCT,0.00,570.0,WeatherDisplay:10.37,2013-04-07 20:40:00,
2013-04-07 16:45:00,70.9,46.7,30.08,SSW,195,7.0,12.0,42,0.00,CLR,SCT,0.00,635.0,WeatherDisplay:10.37,2013-04-07 20:45:00,
2013-04-07 16:50:00,70.9,47.3,30.08,SSW,192,5.0,10.0,43,0.00,CLR,SCT,0.00,599.0,WeatherDisplay:10.37,2013-04-07 20:50:00,
2013-04-07 17:00:00,71.0,46.1,30.08,South,183,7.0,18.0,41,0.00,CLR,SCT,0.00,417.0,WeatherDisplay:10.37,2013-04-07 21:00:00,
2013-04-07 17:05:00,71.0,46.7,30.08,South,176,5.0,8.0,42,0.00,CLR,SCT,0.00,387.0,WeatherDisplay:10.37,2013-04-07 21:05:00,
2013-04-07 17:10:00,70.9,46.0,30.08,SSW,205,3.0,13.0,41,0.00,FEW,SCT,0.00,434.0,WeatherDisplay:10.37,2013-04-07 21:10:00,
2013-04-07 17:20:00,70.7,46.5,30.08,SSW,209,8.0,14.0,42,0.00,FEW,SCT,0.00,450.0,WeatherDisplay:10.37,2013-04-07 21:20:00,
2013-04-07 17:25:00,70.7,45.8,30.08,SSW,197,6.0,10.0,41,0.00,FEW,SCT,0.00,394.0,WeatherDisplay:10.37,2013-04-07 21:25:00,
2013-04-07 17:30:00,70.6,45.8,30.08,SSW,195,5.0,9.0,41,0.00,FEW,SCT,0.00,404.0,WeatherDisplay:10.37,2013-04-07 21:30:00,
2013-04-07 17:40:00,70.7,45.8,30.08,SSW,212,6.0,12.0,41,0.00,CLR,SCT,0.00,352.0,WeatherDisplay:10.37,2013-04-07 21:40:00,
2013-04-07 17:45:00,70.7,45.8,30.08,SSW,211,6.0,12.0,41,0.00,FEW,SCT,0.00,323.0,WeatherDisplay:10.37,2013-04-07 21:45:00,
2013-04-07 17:50:00,70.6,45.7,30.08,SSW,202,3.0,7.0,41,0.00,FEW,SCT,0.00,299.0,WeatherDisplay:10.37,2013-04-07 21:50:00,
2013-04-07 17:55:00,70.4,45.6,30.08,SSW,207,5.0,9.0,41,0.00,FEW,SCT,0.00,204.0,WeatherDisplay:10.37,2013-04-07 21:55:00,
2013-04-07 18:05:00,70.2,46.6,30.08,South,180,5.0,8.0,43,0.00,CLR,SCT,0.00,355.0,WeatherDisplay:10.37,2013-04-07 22:05:00,
2013-04-07 18:10:00,70.3,46.7,30.08,SW,226,5.0,9.0,43,0.00,CLR,SCT,0.00,244.0,WeatherDisplay:10.37,2013-04-07 22:10:00,
2013-04-07 18:15:00,70.3,46.1,30.08,SW,231,5.0,12.0,42,0.00,CLR,SCT,0.00,206.0,WeatherDisplay:10.37,2013-04-07 22:15:00,
2013-04-07 18:20:00,70.2,46.0,30.08,SW,224,7.0,10.0,42,0.00,CLR,SCT,0.00,262.0,WeatherDisplay:10.37,2013-04-07 22:20:00,
2013-04-07 18:30:00,69.9,45.8,30.08,SW,234,5.0,15.0,42,0.00,FEW,SCT,0.00,113.0,WeatherDisplay:10.37,2013-04-07 22:30:00,
2013-04-07 18:40:00,69.5,45.4,30.08,SSW,209,3.0,9.0,42,0.00,FEW,SCT,0.00,174.0,WeatherDisplay:10.37,2013-04-07 22:40:00,
2013-04-07 18:45:00,69.3,45.8,30.08,SW,223,3.0,10.0,43,0.00,CLR,SCT,0.00,207.0,WeatherDisplay:10.37,2013-04-07 22:45:00,
2013-04-07 18:55:00,69.3,46.4,30.08,SW,216,3.0,9.0,44,0.00,CLR,SCT,0.00,172.0,WeatherDisplay:10.37,2013-04-07 22:55:00,
2013-04-07 19:05:00,69.1,46.3,30.09,SW,232,5.0,10.0,44,0.00,CLR,SCT,0.00,127.0,WeatherDisplay:10.37,2013-04-07 23:05:00,
2013-04-07 19:10:00,68.9,46.1,30.09,SW,232,6.0,13.0,44,0.00,CLR,SCT,0.00,104.0,WeatherDisplay:10.37,2013-04-07 23:10:00,
2013-04-07 19:15:00,68.7,45.9,30.09,SW,234,3.0,12.0,44,0.00,FEW,SCT,0.00,83.0,WeatherDisplay:10.37,2013-04-07 23:15:00,
2013-04-07 19:25:00,68.3,46.1,30.09,SW,224,1.0,5.0,45,0.00,BKN,SCT,0.00,30.0,WeatherDisplay:10.37,2013-04-07 23:25:00,
2013-04-07 19:30:00,68.1,46.5,30.09,SW,217,1.0,4.0,46,0.00,SCT,SCT,0.00,33.0,WeatherDisplay:10.37,2013-04-07 23:30:00,
2013-04-07 19:35:00,67.9,46.3,30.09,SW,217,0.0,3.0,46,0.00,SCT,SCT,0.00,18.0,WeatherDisplay:10.37,2013-04-07 23:35:00,
2013-04-07 19:40:00,67.7,46.2,30.08,SW,217,0.0,3.0,46,0.00,SCT,SCT,0.00,12.0,WeatherDisplay:10.37,2013-04-07 23:40:00,
2013-04-07 19:45:00,67.5,46.0,30.08,SW,217,1.0,4.0,46,0.00,SCT,SCT,0.00,7.0,WeatherDisplay:10.37,2013-04-07 23:45:00,
2013-04-07 19:50:00,67.2,46.3,30.08,SSW,205,1.0,4.0,47,0.00,SCT,SCT,0.00,0.0,WeatherDisplay:10.37,2013-04-07 23:50:00,
2013-04-07 20:00:00,66.6,45.8,30.08,SSW,201,1.0,3.0,47,0.00,SCT,SCT,0.00,0.0,WeatherDisplay:10.37,2013-04-08 00:00:00,
2013-04-07 20:05:00,66.5,46.2,30.08,SSW,202,1.0,3.0,48,0.00,SCT,SCT,0.00,0.0,WeatherDisplay:10.37,2013-04-08 00:05:00,
2013-04-07 20:15:00,66.1,45.8,30.08,SSW,202,0.0,2.0,48,0.00,SCT,SCT,0.00,0.0,WeatherDisplay:10.37,2013-04-08 00:15:00,
2013-04-07 20:20:00,65.9,45.6,30.09,SSW,202,0.0,1.0,48,0.00,SCT,SCT,0.00,0.0,WeatherDisplay:10.37,2013-04-08 00:20:00,
2013-04-07 20:30:00,65.5,46.4,30.09,SSW,202,0.0,0.0,50,0.00,SCT,SCT,0.00,0.0,WeatherDisplay:10.37,2013-04-08 00:30:00,
2013-04-07 20:40:00,64.2,46.2,30.09,SSW,202,0.0,1.0,52,0.00,SCT,SCT,0.00,0.0,WeatherDisplay:10.37,2013-04-08 00:40:00,
2013-04-07 20:50:00,61.8,46.4,30.10,SSW,202,0.0,1.0,57,0.00,SCT,SCT,0.00,0.0,WeatherDisplay:10.37,2013-04-08 00:50:00,
2013-04-07 20:55:00,61.1,46.2,30.10,SSW,202,0.0,0.0,58,0.00,SCT,SCT,0.00,0.0,WeatherDisplay:10.37,2013-04-08 00:55:00,
2013-04-07 21:00:00,60.7,45.8,30.10,SSW,202,0.0,0.0,58,0.00,SCT,SCT,0.00,0.0,WeatherDisplay:10.37,2013-04-08 01:00:00,
2013-04-07 21:05:00,60.4,46.0,30.10,SSW,202,0.0,0.0,59,0.00,SCT,SCT,0.00,0.0,WeatherDisplay:10.37,2013-04-08 01:05:00,
2013-04-07 21:10:00,60.1,45.7,30.10,SSW,202,0.0,0.0,59,0.00,SCT,SCT,0.00,0.0,WeatherDisplay:10.37,2013-04-08 01:10:00,
2013-04-07 21:15:00,59.7,45.8,30.10,SSW,202,0.0,0.0,60,0.00,SCT,SCT,0.00,0.0,WeatherDisplay:10.37,2013-04-08 01:15:00,
2013-04-07 21:25:00,59.0,46.0,30.10,SSW,202,0.0,0.0,62,0.00,SCT,SCT,0.00,0.0,WeatherDisplay:10.37,2013-04-08 01:25:00,
2013-04-07 21:30:00,58.5,46.0,30.10,SSW,202,0.0,0.0,63,0.00,SCT,SCT,0.00,0.0,WeatherDisplay:10.37,2013-04-08 01:30:00,
2013-04-07 21:40:00,57.7,45.2,30.11,SSW,202,0.0,0.0,63,0.00,SCT,SCT,0.00,0.0,WeatherDisplay:10.37,2013-04-08 01:40:00,
2013-04-07 21:55:00,56.6,45.4,30.10,SSW,202,0.0,1.0,66,0.00,SCT,SCT,0.00,0.0,WeatherDisplay:10.37,2013-04-08 01:55:00,
2013-04-07 22:05:00,56.0,45.2,30.11,SSW,202,0.0,0.0,67,0.00,SCT,SCT,0.00,0.0,WeatherDisplay:10.37,2013-04-08 02:05:00,
2013-04-07 22:10:00,55.7,45.3,30.10,SSW,202,0.0,0.0,68,0.00,SCT,SCT,0.00,0.0,WeatherDisplay:10.37,2013-04-08 02:10:00,
2013-04-07 22:20:00,55.2,45.2,30.10,SSW,202,0.0,0.0,69,0.00,SCT,SCT,0.00,0.0,WeatherDisplay:10.37,2013-04-08 02:20:00,
2013-04-07 22:30:00,54.8,44.8,30.11,SSW,202,0.0,0.0,69,0.00,SCT,SCT,0.00,0.0,WeatherDisplay:10.37,2013-04-08 02:30:00,
2013-04-07 22:35:00,54.5,44.6,30.11,SSW,202,0.0,0.0,69,0.00,SCT,SCT,0.00,0.0,WeatherDisplay:10.37,2013-04-08 02:35:00,
2013-04-07 22:50:00,53.9,44.7,30.11,SSW,202,0.0,0.0,71,0.00,SCT,SCT,0.00,0.0,WeatherDisplay:10.37,2013-04-08 02:50:00,
2013-04-07 23:05:00,53.2,44.8,30.10,SSW,202,0.0,0.0,73,0.00,SCT,SCT,0.00,0.0,WeatherDisplay:10.37,2013-04-08 03:05:00,
2013-04-07 23:15:00,52.9,45.2,30.10,SSW,202,0.0,1.0,75,0.00,SCT,SCT,0.00,0.0,WeatherDisplay:10.37,2013-04-08 03:15:00,
2013-04-07 23:20:00,52.9,45.5,30.10,SSW,202,0.0,0.0,76,0.00,SCT,SCT,0.00,0.0,WeatherDisplay:10.37,2013-04-08 03:20:00,
2013-04-07 23:25:00,52.9,45.5,30.09,SSW,202,0.0,0.0,76,0.00,SCT,SCT,0.00,0.0,WeatherDisplay:10.37,2013-04-08 03:25:00,
2013-04-07 23:35:00,53.0,45.6,30.09,SSW,202,0.0,1.0,76,0.00,SCT,SCT,0.00,0.0,WeatherDisplay:10.37,2013-04-08 03:35:00,
2013-04-07 23:45:00,53.3,46.3,30.09,SSW,202,0.0,0.0,77,0.00,SCT,SCT,0.00,0.0,WeatherDisplay:10.37,2013-04-08 03:45:00,
2013-04-07 23:55:00,53.7,46.3,30.09,SSW,202,0.0,0.0,76,0.00,SCT,SCT,0.00,0.0,WeatherDisplay:10.37,2013-04-08 03:55:00,